Weather History for PACD - March, 2013

Change the Weather History Date:

Friday, March 22, 2013

  Actual Average Record
Temperature  
Mean Temperature 36 °F 30 °F  
Max Temperature 42 °F 35 °F 48 °F (1979)
Min Temperature 29 °F 25 °F -3 °F (2012)
Degree Days  
Heating Degree Days 29 35  
Month to date heating degree days 753 770  
Since 1 July heating degree days 7167 6994  
Cooling Degree Days 0    
Month to date cooling degree days 0  
Year to date cooling degree days 0  
Moisture  
Dew Point 29 °F    
Average Humidity 0    
Maximum Humidity 0    
Minimum Humidity 0    
Precipitation  
Precipitation T in 0.07 in 0.62 in (1965)
Month to date precipitation 2.02 2.00  
Year to date precipitation 8.96 8.14  
Snow  
Snow T in 0.40 in 3.00 in (1964)
Month to date snowfall 5.5 9.5  
Since 1 July snowfall 57.3 61.7  
Snow Depth T in    
Sea Level Pressure  
Sea Level Pressure 29.93 in    
Wind  
Wind Speed 6 mph (SSE)    
Max Wind Speed 26 mph    
Max Gust Speed 31 mph    
Visibility 10 miles    
Events      
T = Trace of Precipitation, MM = Missing Value Source: NWS Daily Summary

Daily Weather History Graph

Daily Weather History Graph

Search for Another Location

Airport or City:

Trip Planner

Search our weather history database for the weather conditions in past years. The results will help you decide how hot, cold, wet, or windy it might be!

Date:

Astronomy

Mar. 22, 2013 Rise Set
Actual Time 8:46 AM AKDT 9:09 PM AKDT
Civil Twilight 8:10 AM AKDT 9:46 PM AKDT
Nautical Twilight 7:26 AM AKDT 10:29 PM AKDT
Astronomical Twilight 6:40 AM AKDT 11:16 PM AKDT
Moon 4:10 PM AKDT (3/22) 6:35 AM AKDT (3/22)
Length of Visible Light 13h 35m
Length of Day
12h 22m
Waxing Gibbous, 78% of the Moon is Illuminated
Mar 22
Waxing Gibbous
Mar 27
Full
Apr 2
Last Quarter
Apr 10
New
Apr 18
First Quarter

Hourly Weather History & Observations

Time (AKDT) Temp. Windchill Dew Point Humidity Pressure Visibility Wind Dir Wind Speed Gust Speed Precip Events Conditions
12:53 AM 34.0 °F 28.8 °F 30.0 °F 85% 29.98 in 10.0 mi SSE 5.8 mph - N/A   Overcast
1:53 AM 33.1 °F 27.7 °F 28.9 °F 85% 29.97 in 10.0 mi South 5.8 mph - N/A   Overcast
2:53 AM 28.9 °F - 25.0 °F 85% 29.97 in 10.0 mi Calm Calm - N/A   Mostly Cloudy
3:53 AM 32.0 °F 28.7 °F 25.0 °F 75% 29.97 in 10.0 mi South 3.5 mph - N/A   Overcast
4:53 AM 32.0 °F - 28.0 °F 85% 29.97 in 10.0 mi Calm Calm - N/A   Overcast
5:53 AM 32.0 °F - 27.0 °F 82% 29.96 in 10.0 mi Calm Calm - N/A   Overcast
6:53 AM 33.1 °F - 28.9 °F 85% 29.95 in 10.0 mi Calm Calm - N/A   Overcast
7:15 AM 32.0 °F - 28.4 °F 87% 29.95 in 10.0 mi Calm Calm - N/A   Overcast
7:48 AM 32.0 °F 28.7 °F 28.4 °F 87% 29.95 in 10.0 mi South 3.5 mph - N/A   Overcast
7:53 AM 32.0 °F - 28.0 °F 85% 29.96 in 10.0 mi Calm Calm - N/A   Overcast
8:13 AM 32.0 °F - 26.6 °F 80% 29.95 in 10.0 mi Calm Calm - N/A   Overcast
8:53 AM 33.1 °F - 28.0 °F 82% 29.96 in 10.0 mi Calm Calm - N/A   Overcast
9:53 AM 34.0 °F - 28.9 °F 82% 29.95 in 10.0 mi Calm Calm - N/A   Mostly Cloudy
10:53 AM 36.0 °F 33.3 °F 28.9 °F 76% 29.96 in 10.0 mi South 3.5 mph - N/A   Mostly Cloudy
11:53 AM 37.9 °F 34.4 °F 28.0 °F 68% 29.96 in 10.0 mi ESE 4.6 mph - N/A   Overcast
12:53 PM 39.0 °F 36.8 °F 28.0 °F 65% 29.96 in 10.0 mi SSE 3.5 mph - N/A   Overcast
1:53 PM 39.0 °F 34.0 °F 28.9 °F 67% 29.95 in 10.0 mi ESE 6.9 mph - N/A   Overcast
2:35 PM 41.0 °F 34.7 °F 30.2 °F 65% 29.94 in 10.0 mi SE 10.4 mph - N/A   Mostly Cloudy
2:53 PM 41.0 °F 34.7 °F 30.0 °F 65% 29.94 in 10.0 mi SE 10.4 mph - N/A   Mostly Cloudy
3:53 PM 39.0 °F 31.4 °F 30.0 °F 70% 29.93 in 10.0 mi SE 12.7 mph - N/A   Mostly Cloudy
4:53 PM 39.0 °F 31.0 °F 30.9 °F 73% 29.92 in 10.0 mi SE 13.8 mph - N/A   Overcast
5:53 PM 39.0 °F 31.0 °F 30.0 °F 70% 29.91 in 10.0 mi SE 13.8 mph - N/A   Mostly Cloudy
6:53 PM 39.0 °F 30.3 °F 30.0 °F 70% 29.90 in 10.0 mi SSE 16.1 mph - N/A   Mostly Cloudy
7:26 PM 37.4 °F 28.5 °F 30.2 °F 75% 29.89 in 10.0 mi SSE 15.0 mph - N/A   Mostly Cloudy
7:53 PM 37.0 °F 29.3 °F 30.0 °F 76% 29.88 in 10.0 mi SE 11.5 mph - N/A   Overcast
8:53 PM 36.0 °F 27.1 °F 30.0 °F 79% 29.88 in 10.0 mi SE 13.8 mph - N/A   Overcast
9:53 PM 36.0 °F 26.3 °F 30.0 °F 79% 29.86 in 10.0 mi SE 16.1 mph 24.2 mph N/A   Overcast
10:53 PM 36.0 °F 25.6 °F 30.0 °F 79% 29.85 in 10.0 mi SE 18.4 mph - N/A   Overcast
11:53 PM 36.0 °F 24.2 °F 30.0 °F 79% 29.85 in 10.0 mi SSE 24.2 mph 31.1 mph N/A   Overcast